[[{"header":{"parameterUnit":"m.s-1","parameterCategory":1,"la1":30.2991,"la2":30.254,"lo1":-89.0895,"lo2":-89.0444,"dy":0.0017,"dx":0.0017,"nx":28,"ny":28,"refTime":"2025-01-02T03:00:00:Z","depth":0,"parameterNumber":2,"parameterNumberName":"U-component_of_WINDS"},"data":[0,0,0,0,0,0,0,0,0,0,0,0,0,0,0,0,0,0,0,0,0,0,0,0,0,0,0,0,0,0,0,0,0,0,0,0,0,0,0,0,0,0,0,0,0,0,0,0,0,0,0,0,0,0,0,0,0,0,-0.0708,-0.0708,0,-0.065,-0.065,-0.0649,-0.0609,-0.0609,-0.0609,-0.0608,-0.0548,-0.0547,-0.0546,0,0,0,0,0,0,0,0,0,0,0,0,0,-0.0783,-0.0782,-0.0708,-0.0707,-0.0707,-0.065,-0.065,-0.0649,-0.0609,-0.0609,-0.0608,-0.0608,-0.0549,-0.0547,-0.0546,0,0,0,0,0,0,0,0,0,0,0,0,0,-0.074,-0.0781,-0.0708,-0.068,-0.0677,-0.0651,-0.065,-0.0649,-0.0609,-0.0609,-0.0608,-0.0608,-0.0549,-0.0547,-0.0545,-0.0542,0,0,-0.0539,-0.0539,0,0,0,0,0,0,0,0,-0.0743,-0.0738,-0.0685,-0.0682,-0.0679,-0.0636,-0.0654,-0.0613,-0.0609,-0.0635,-0.0608,-0.0608,-0.0578,-0.0574,-0.0564,-0.0539,-0.0537,-0.0539,-0.0538,-0.0537,-0.0537,0,0,0,0,0,0,0,-0.0746,-0.074,-0.0685,-0.0684,-0.068,-0.067,-0.0663,-0.0646,-0.061,-0.0633,-0.063,-0.0623,-0.0576,-0.0566,-0.0562,-0.0536,-0.0539,-0.0538,-0.0536,-0.0536,-0.0505,-0.0505,0,0,0,0,0,0,-0.0753,-0.0743,-0.0687,-0.0684,-0.071,-0.0669,-0.0662,-0.065,-0.061,-0.0603,-0.0624,-0.0622,-0.0569,-0.0564,-0.056,-0.0553,-0.0537,-0.0535,-0.0534,-0.0504,-0.0505,-0.0505,0,0,0,0,0,0,-0.0755,-0.0749,-0.0689,-0.0712,-0.0704,-0.0668,-0.0656,-0.065,-0.0639,-0.0603,-0.0596,-0.062,-0.0569,-0.0563,-0.0547,-0.055,-0.0534,-0.0533,-0.0504,-0.0504,-0.0505,-0.0539,0,0,0,0,0,0,-0.0757,-0.075,-0.0748,-0.0713,-0.0703,-0.0678,-0.0656,-0.0649,-0.0636,-0.0633,-0.0598,-0.0591,-0.0568,-0.055,-0.0545,-0.0547,-0.0531,-0.0503,-0.0504,-0.0505,-0.0537,-0.0541,-0.0543,0,0,0,0,0,-0.076,-0.076,-0.0749,-0.0742,-0.0701,-0.0678,-0.0672,-0.0646,-0.0636,-0.0635,-0.0611,-0.0593,-0.055,-0.0549,-0.0542,-0.0544,-0.0503,-0.0504,-0.0505,-0.0536,-0.054,-0.0543,0,0,0,0,0,0,-0.0798,-0.0755,-0.0742,-0.073,-0.0708,-0.0671,-0.0668,-0.0651,-0.0631,-0.0629,-0.0596,-0.0588,-0.0576,-0.0558,-0.0557,-0.0538,-0.0524,-0.0524,-0.055,-0.0554,-0.0557,-0.0561,-0.0529,0,0,0,0,0,-0.0805,-0.079,-0.0754,-0.0747,-0.0737,-0.0705,-0.0694,-0.0675,-0.0651,-0.0641,-0.0616,-0.0593,-0.0575,-0.0563,-0.0544,-0.0534,-0.0526,-0.0533,-0.0536,-0.0538,-0.0538,-0.0531,-0.0534,-0.0508,-0.0508,-0.0508,0,0,-0.0819,-0.0794,-0.0787,-0.0754,-0.0735,-0.072,-0.0697,-0.0683,-0.0671,-0.0639,-0.0622,-0.0603,-0.0575,-0.0562,-0.0555,-0.0547,-0.0544,-0.0539,-0.0542,-0.054,-0.0532,-0.0535,-0.0537,-0.0508,-0.0508,-0.0508,0,0,-0.0837,-0.0817,-0.0809,-0.079,-0.0761,-0.0739,-0.0737,-0.0703,-0.0689,-0.0672,-0.0647,-0.0633,-0.0602,-0.0583,-0.0569,-0.0579,-0.0561,-0.0573,-0.0589,-0.0583,-0.0585,-0.0586,-0.059,-0.0591,-0.0574,-0.0574,-0.0574,0,-0.0859,-0.0836,-0.0807,-0.0794,-0.078,-0.075,-0.0741,-0.0724,-0.069,-0.0681,-0.0672,-0.0632,-0.0611,-0.0593,-0.0595,-0.0585,-0.0582,-0.0578,-0.0587,-0.0588,-0.0589,-0.0592,-0.0594,-0.0575,-0.0575,-0.0575,-0.0575,0,-0.0864,-0.0848,-0.0845,-0.0813,-0.0799,-0.0788,-0.0757,-0.0746,-0.0728,-0.0707,-0.069,-0.0663,-0.0638,-0.0632,-0.0614,-0.0611,-0.0607,-0.0593,-0.0579,-0.0594,-0.0596,-0.0597,-0.0578,-0.0577,-0.0577,-0.0576,0,0,-0.0905,-0.0857,-0.0856,-0.0841,-0.0806,-0.0793,-0.0781,-0.0756,-0.0747,-0.0724,-0.0713,-0.0686,-0.0673,-0.0657,-0.0637,-0.0631,-0.0641,-0.0618,-0.0617,-0.0623,-0.0635,-0.0646,-0.0647,-0.0628,-0.0628,-0.0628,-0.0637,0,-0.0918,-0.0895,-0.0868,-0.0853,-0.0838,-0.0809,-0.0797,-0.0775,-0.0755,-0.0738,-0.0716,-0.0698,-0.0682,-0.0672,-0.0665,-0.0641,-0.0643,-0.064,-0.0617,-0.0616,-0.0625,-0.0648,-0.066,-0.067,-0.0638,-0.0638,-0.0638,0,-0.0931,-0.091,-0.0894,-0.0859,-0.0852,-0.0843,-0.0818,-0.0803,-0.0776,-0.0761,-0.0744,-0.0722,-0.0706,-0.0693,-0.0671,-0.067,-0.0659,-0.0645,-0.0645,-0.0642,-0.0628,-0.0646,-0.0672,-0.0674,-0.0639,-0.0639,-0.0639,0,-0.0963,-0.093,-0.0916,-0.0904,-0.0864,-0.0858,-0.084,-0.0813,-0.08,-0.0777,-0.0768,-0.0744,-0.0731,-0.0713,-0.0685,-0.0678,-0.0666,-0.0651,-0.0653,-0.0654,-0.0653,-0.0653,-0.0677,-0.0645,-0.0645,-0.0645,-0.0645,0,-0.098,-0.0972,-0.093,-0.0921,-0.091,-0.0879,-0.0869,-0.0849,-0.0825,-0.0811,-0.0784,-0.0772,-0.0736,-0.0719,-0.0697,-0.0682,-0.0676,-0.0664,-0.0658,-0.0666,-0.0668,-0.0659,-0.0658,-0.0645,-0.0645,-0.0645,-0.0645,0,-0.1014,-0.0986,-0.0969,-0.0932,-0.0922,-0.0916,-0.0884,-0.0874,-0.0852,-0.0835,-0.083,-0.0795,-0.0774,-0.0744,-0.0714,-0.0699,-0.0687,-0.0678,-0.0696,-0.0693,-0.0697,-0.0697,-0.0717,-0.0717,-0.0685,-0.0685,-0.0686,0,-0.1028,-0.102,-0.0983,-0.0972,-0.0956,-0.0938,-0.0925,-0.0893,-0.088,-0.0848,-0.0842,-0.0819,-0.0798,-0.0766,-0.0738,-0.0714,-0.0704,-0.0713,-0.0701,-0.0709,-0.0704,-0.0705,-0.0704,-0.0716,-0.0716,-0.0717,-0.0717,0,-0.1055,-0.1041,-0.1022,-0.0998,-0.0982,-0.0962,-0.094,-0.0933,-0.0896,-0.0882,-0.0861,-0.0845,-0.0814,-0.0791,-0.0764,-0.0745,-0.0725,-0.0721,-0.072,-0.0729,-0.074,-0.0734,-0.0704,-0.0721,-0.072,-0.072,-0.072,-0.072,-0.1079,-0.1071,-0.1043,-0.1022,-0.1002,-0.0983,-0.0972,-0.0948,-0.0929,-0.0902,-0.0884,-0.0863,-0.0835,-0.0796,-0.0778,-0.0761,-0.0753,-0.0752,-0.0752,-0.0752,-0.0755,-0.0742,-0.0756,-0.0756,-0.0756,-0.0755,-0.0755,0,-0.1104,-0.1084,-0.1066,-0.1036,-0.102,-0.1003,-0.0977,-0.0965,-0.0947,-0.0923,-0.0903,-0.0878,-0.0855,-0.0825,-0.08,-0.0792,-0.0782,-0.0786,-0.0787,-0.0783,-0.0764,-0.0767,-0.0795,-0.0795,-0.0795,-0.0795,-0.0795,-0.0795,-0.1116,-0.1101,-0.1083,-0.1058,-0.1038,-0.1018,-0.1005,-0.0986,-0.0966,-0.0939,-0.092,-0.0901,-0.0874,-0.0846,-0.0824,-0.0816,-0.0808,-0.0816,-0.0804,-0.0787,-0.0784,-0.0781,-0.0783,-0.0814,-0.0814,-0.0824,-0.0824,-0.0825]},{"header":{"parameterUnit":"m.s-1","parameterCategory":1,"la1":30.2991,"la2":30.254,"lo1":-89.0895,"lo2":-89.0444,"dy":0.0017,"dx":0.0017,"nx":28,"ny":28,"refTime":"2025-01-02T03:00:00:Z","depth":0,"parameterNumber":3,"parameterNumberName":"V-component_of_WINDS"},"data":[0,0,0,0,0,0,0,0,0,0,0,0,0,0,0,0,0,0,0,0,0,0,0,0,0,0,0,0,0,0,0,0,0,0,0,0,0,0,0,0,0,0,0,0,0,0,0,0,0,0,0,0,0,0,0,0,0,0,-3.6319,-3.6321,0,-3.6429,-3.643,-3.6431,-3.6469,-3.6469,-3.6468,-3.6468,-3.6573,-3.6576,-3.658,0,0,0,0,0,0,0,0,0,0,0,0,0,-3.614,-3.6143,-3.6319,-3.6321,-3.6322,-3.6428,-3.643,-3.6431,-3.6469,-3.6469,-3.6468,-3.6468,-3.6572,-3.6576,-3.658,0,0,0,0,0,0,0,0,0,0,0,0,0,-3.623,-3.6144,-3.6319,-3.6354,-3.6358,-3.6428,-3.643,-3.6432,-3.6469,-3.6469,-3.6468,-3.6468,-3.6571,-3.6576,-3.658,-3.6622,0,0,-3.6595,-3.6597,0,0,0,0,0,0,0,0,-3.6225,-3.6237,-3.6347,-3.6352,-3.6357,-3.6435,-3.6406,-3.6495,-3.6469,-3.6427,-3.6468,-3.6467,-3.6527,-3.6536,-3.6557,-3.6627,-3.6631,-3.6595,-3.6598,-3.66,-3.6602,0,0,0,0,0,0,0,-3.6219,-3.6232,-3.6362,-3.6349,-3.6355,-3.6363,-3.6375,-3.6423,-3.6479,-3.6431,-3.6434,-3.6446,-3.653,-3.6552,-3.656,-3.6633,-3.6595,-3.6599,-3.6602,-3.6604,-3.6745,-3.6746,0,0,0,0,0,0,-3.6208,-3.6227,-3.6359,-3.6366,-3.6288,-3.6367,-3.638,-3.641,-3.6479,-3.6488,-3.6447,-3.6448,-3.6545,-3.6554,-3.6564,-3.6619,-3.66,-3.6605,-3.6607,-3.6744,-3.6745,-3.6746,0,0,0,0,0,0,-3.6204,-3.6219,-3.6355,-3.6297,-3.6315,-3.6371,-3.6404,-3.6413,-3.6436,-3.6491,-3.6501,-3.646,-3.6545,-3.6557,-3.6608,-3.6623,-3.6607,-3.6611,-3.6743,-3.6745,-3.6746,-3.6729,0,0,0,0,0,0,-3.6198,-3.6217,-3.6234,-3.6298,-3.6318,-3.6398,-3.6405,-3.6415,-3.6445,-3.6447,-3.6506,-3.6515,-3.6545,-3.6601,-3.6613,-3.663,-3.6615,-3.6742,-3.6744,-3.6745,-3.6728,-3.6729,-3.673,0,0,0,0,0,-3.6192,-3.6223,-3.6235,-3.625,-3.6341,-3.6399,-3.6411,-3.6446,-3.6445,-3.6463,-3.6499,-3.6513,-3.662,-3.6606,-3.662,-3.6638,-3.6741,-3.6743,-3.6745,-3.6728,-3.6729,-3.673,0,0,0,0,0,0,-3.6156,-3.6231,-3.6246,-3.6298,-3.6342,-3.6405,-3.6428,-3.6446,-3.6489,-3.6489,-3.653,-3.6543,-3.6592,-3.662,-3.6603,-3.6683,-3.6681,-3.6686,-3.6663,-3.6665,-3.6666,-3.6658,-3.6619,0,0,0,0,0,-3.6155,-3.6198,-3.626,-3.6301,-3.6322,-3.6371,-3.6398,-3.6422,-3.6469,-3.6487,-3.6526,-3.6569,-3.6613,-3.664,-3.6683,-3.6733,-3.6747,-3.6752,-3.6753,-3.6754,-3.6757,-3.6788,-3.6792,-3.6753,-3.6753,-3.6753,0,0,-3.6151,-3.6198,-3.6222,-3.6295,-3.6332,-3.6375,-3.6386,-3.643,-3.6462,-3.6492,-3.6545,-3.6575,-3.6626,-3.6678,-3.6702,-3.6702,-3.6772,-3.6756,-3.6756,-3.676,-3.6791,-3.6794,-3.6798,-3.6754,-3.6754,-3.6754,0,0,-3.6168,-3.6207,-3.6247,-3.6285,-3.6342,-3.6375,-3.6385,-3.6446,-3.6469,-3.6523,-3.6547,-3.6585,-3.6659,-3.6695,-3.6723,-3.6758,-3.6773,-3.677,-3.6776,-3.6805,-3.6808,-3.6811,-3.6825,-3.683,-3.6774,-3.6774,-3.6774,0,-3.6156,-3.6223,-3.6264,-3.6308,-3.634,-3.6373,-3.6414,-3.6448,-3.6515,-3.6536,-3.6536,-3.6632,-3.6668,-3.673,-3.6739,-3.676,-3.6773,-3.6764,-3.6805,-3.6808,-3.6812,-3.6826,-3.6831,-3.6773,-3.6773,-3.6773,-3.6773,0,-3.6207,-3.6253,-3.6278,-3.6346,-3.6381,-3.6423,-3.647,-3.65,-3.6522,-3.6555,-3.661,-3.6656,-3.671,-3.6726,-3.6746,-3.6792,-3.6791,-3.6797,-3.6796,-3.6814,-3.6828,-3.6834,-3.6772,-3.6773,-3.6773,-3.6773,0,0,-3.6201,-3.6295,-3.6303,-3.6336,-3.6404,-3.644,-3.6484,-3.654,-3.6566,-3.6612,-3.665,-3.6714,-3.6722,-3.6754,-3.6779,-3.6805,-3.6833,-3.6809,-3.6811,-3.6813,-3.6888,-3.6883,-3.6888,-3.6844,-3.6845,-3.6846,-3.6884,0,-3.6227,-3.631,-3.635,-3.6414,-3.6459,-3.6493,-3.6532,-3.6577,-3.661,-3.6651,-3.6687,-3.6732,-3.6738,-3.6759,-3.6786,-3.6823,-3.6848,-3.6821,-3.6879,-3.6881,-3.6866,-3.6895,-3.689,-3.6923,-3.6889,-3.689,-3.6891,0,-3.6268,-3.6318,-3.6388,-3.6455,-3.6475,-3.6509,-3.6566,-3.6605,-3.6658,-3.668,-3.6718,-3.6743,-3.6791,-3.6787,-3.6854,-3.6835,-3.6861,-3.6884,-3.6886,-3.6893,-3.6887,-3.6904,-3.6935,-3.694,-3.69,-3.6899,-3.6898,0,-3.6259,-3.6344,-3.6398,-3.6425,-3.6503,-3.6527,-3.656,-3.6612,-3.6645,-3.6694,-3.6715,-3.6768,-3.6796,-3.6836,-3.6875,-3.6869,-3.6939,-3.6938,-3.6959,-3.6958,-3.6971,-3.697,-3.7008,-3.6987,-3.6987,-3.6987,-3.6987,0,-3.6284,-3.6326,-3.6396,-3.6428,-3.6477,-3.6523,-3.657,-3.6605,-3.6652,-3.6693,-3.6724,-3.6761,-3.681,-3.6853,-3.6884,-3.6936,-3.6947,-3.6967,-3.6974,-3.6965,-3.6962,-3.6982,-3.6981,-3.6988,-3.6988,-3.6988,-3.6987,0,-3.6281,-3.6329,-3.6391,-3.6462,-3.6481,-3.6514,-3.6574,-3.6608,-3.6644,-3.6695,-3.6709,-3.6765,-3.6818,-3.6861,-3.6928,-3.6949,-3.7004,-3.7012,-3.6987,-3.6991,-3.701,-3.7008,-3.7063,-3.7073,-3.7044,-3.7044,-3.7044,0,-3.6294,-3.6328,-3.6405,-3.6436,-3.647,-3.6518,-3.6553,-3.66,-3.6635,-3.67,-3.6726,-3.6782,-3.6829,-3.6912,-3.6957,-3.701,-3.702,-3.7036,-3.7028,-3.7018,-3.7022,-3.702,-3.7025,-3.7036,-3.7036,-3.7037,-3.7037,0,-3.6313,-3.6337,-3.6387,-3.6447,-3.6488,-3.6537,-3.6585,-3.6608,-3.6664,-3.6702,-3.6758,-3.6795,-3.6868,-3.6923,-3.6981,-3.7014,-3.7035,-3.7039,-3.7047,-3.7037,-3.7022,-3.7033,-3.699,-3.7037,-3.7037,-3.7037,-3.7037,-3.7037,-3.632,-3.6353,-3.6413,-3.6469,-3.6512,-3.6558,-3.6595,-3.6637,-3.6686,-3.6751,-3.6775,-3.6833,-3.6888,-3.6969,-3.7003,-3.7049,-3.705,-3.7061,-3.7064,-3.7066,-3.7066,-3.7015,-3.7059,-3.7059,-3.7059,-3.7059,-3.7059,0,-3.6342,-3.6383,-3.6434,-3.6505,-3.6549,-3.6568,-3.6625,-3.666,-3.6712,-3.6762,-3.681,-3.6876,-3.6931,-3.6982,-3.704,-3.7066,-3.7078,-3.708,-3.7078,-3.7086,-3.706,-3.7048,-3.707,-3.707,-3.707,-3.707,-3.707,-3.707,-3.6358,-3.6417,-3.6448,-3.6528,-3.6569,-3.6629,-3.666,-3.6703,-3.6744,-3.6818,-3.6865,-3.69,-3.6951,-3.7013,-3.7065,-3.7079,-3.7098,-3.7099,-3.7115,-3.7089,-3.7088,-3.7086,-3.7075,-3.7102,-3.7102,-3.7137,-3.7138,-3.7138]}]]